THOR ABLESTAR DEB, 649

Orbit data source: Space-Track

THOR ABLESTAR DEB, 649 is space debris in LEO originally from a launch on Thu, 29 Jun 1961 UTC launched from the Air Force Eastern Test Range (AFETR). Debris objects in space refer to the collection of defunct objects orbiting the Earth. Examples of debris include non-operational satellites, rocket bodies, and fragments generated from explosions, collisions, or faulty payload assembly.

Loading next visibility...
THOR ABLESTAR DEB details
Identifier
649, 1961-015HA
Orbit
LEO
Last TLE update23 hours ago
Origin
Flag of USUSAF SSD (US)
ManufacturerUnknown
MissionSpacecraft
Bus & MotorUnknown
MassUnknown
Launch date (UTC)
1961-06-29 (64 years ago)
Launch vehicleUnknown
Launch site
Air Force Eastern Test Range (AFETR)
Object type
Payload
Rocket body
Debris
Shape & HBRUnknown
Radar Cross SectionSmall (<0.1 m²)

Expand to show TLE details & history

TLE from 23 hours ago
0 THOR ABLESTAR DEB
1 00649U 61015HA  25017.73638012  .00000355  00000-0  11871-2 0  9990
2 00649  66.2674 128.2301 0566499 289.5666 227.5562 12.65099832927428
Epoch: 2025-01-17T17:40Z
Definitive object data (Epoch: 2025-01-17T17:40:23.242Z)
Latitude24.99246°
Longitude-86.03177°
Altitude1,714.326 km
Speed6.88 km/s
True Right ascension19h 45m 50s
True Declination24° 52' 36"
Sunlit
Object was in daylight at TLE epoch
Visualization TLE readout
Latitude-15.74736°
Longitude-69.10565°
Altitude1,398.04 km
Speed7.165 km/s
Apparent Right ascension23h 37m 01s
Apparent Declination-47° 08' 27"
Sunlit
Object is in daylight
Visualization observer readout
Local Sidereal Time17:34:00
Azimuth129.289° SE
Elevation-28.505°
Doppler factor1
Orbital elements
Apogee altitude1,841.168 km
Perigee altitude959.849 km
Semi-major axis7,778.645 km
Eccentricity0.0566499
Inclination66.2674°
RAAN128.2301°
Arg. of periapsis289.5666°
True anomaly222.98946°
Mean anomaly227.5562°
Eccentric anomaly225.25104°
Mean motion3.16364 °/min
BSTAR0.0011871
Orbital period113.79 mins
Loading maneuver chart data...

THOR ABLESTAR DEB Visibility forecast

Observer location: undefined°, undefined

Span
Click to sort rows by Start time (UTC) header in descending order
Start Az.
Max El. time (UTC)
Max El. Az.
Max El.
End time (UTC)
End Az.
20 mins2025-01-18 18:04:06.708Z328.564° NNW2025-01-18 18:15:06.708Z204.646° SW44.652°2025-01-18 18:24:06.708Z157.54° S
12 mins2025-01-18 20:05:06.708Z297.872° NW2025-01-18 20:10:06.708Z266.946° W19.017°2025-01-18 20:17:06.708Z221.786° SW
11 mins2025-01-19 06:53:06.708Z133.179° SE2025-01-19 06:58:06.708Z93.136° ESE19.609°2025-01-19 07:04:06.708Z54.62° ENE
17 mins2025-01-19 08:46:06.708Z209.235° SW2025-01-19 08:53:06.708Z230.659° WSW44.777°2025-01-19 09:03:06.708Z29.671° NE
15 mins2025-01-19 10:46:06.708Z272.999° WNW2025-01-19 10:53:06.708Z327.94° NNW25.582°2025-01-19 11:01:06.708Z19.365° NNE
9 mins2025-01-19 12:51:06.708Z331.256° NNW2025-01-19 12:55:06.708Z355.779° N14.574°2025-01-19 13:00:06.708Z24.438° NE
13 mins2025-01-19 14:52:06.708Z349.279° N2025-01-19 14:58:06.708Z27.828° NE19.784°2025-01-19 15:05:06.708Z69.909° E
|